RH
64 61 69 66 72 84 92 72 90 32 36 25 30 42 45 29 22 20 16 10 6 8 12 14 14 14 12 19 18 17 35 56 66 69 71 70 68 82 77 86 71 75 76 75
45 36 42 46 42 52 61 68 72 50 29 34 37 32 27 26 21 16 12 6 7 11 14 16 16 16 16 15 14 13 12 12 13 25 45 49 54 59 64 66 61 62 67 70
91 75 76 47 20 20 23 27 22 40 23 30 26 24 21 20 18 12 7 5 8 11 14 16 17 18 18 18 18 18 18 17 16 14 13 17 25 38 39 47 57 60 58 60
94 90 84 21 24 21 21 20 23 18 14 18 17 18 18 17 10 9 5 5 8 11 13 15 17 19 20 20 21 21 21 21 21 20 20 19 17 15 16 22 40 52 60 68
95 100 34 12 12 17 22 12 14 11 13 13 15 14 16 12 8 5 4 5 7 10 12 14 16 18 20 22 23 23 24 24 25 25 24 24 23 22 21 20 18 15 17 31
98 98 84 11 14 15 17 10 10 12 16 10 8 8 9 7 5 4 4 6 7 9 11 12 14 16 18 20 22 24 25 26 26 27 27 27 28 27 27 26 25 24 22 21
100 90 44 10 8 12 17 8 7 9 9 8 7 7 6 5 4 4 5 6 7 8 9 11 12 13 15 16 19 21 23 24 24 24 24 24 25 26 28 29 29 29 29 28
100 96 55 5 8 11 9 9 8 8 8 7 6 5 4 4 4 4 5 6 7 7 8 9 10 11 12 13 14 16 18 20 21 21 20 20 19 20 21 22 24 26 28 30
22 13 10 10 10 10 9 8 9 9 8 6 5 5 5 4 4 5 5 5 6 6 7 8 8 9 9 10 10 11 12 13 15 16 17 18 19 18 17 17 16 16 17 19
14 7 8 11 10 10 10 10 11 9 7 6 5 5 5 5 5 5 5 5 6 6 6 6 7 7 8 8 8 8 8 9 9 10 11 11 12 14 15 16 17 17 16 16
14 13 17 12 10 10 12 12 10 9 8 7 6 6 5 5 6 6 6 5 5 6 6 6 6 6 7 7 7 7 7 8 8 8 9 9 10 10 10 11 11 12 13 14
16 21 26 23 14 11 9 9 10 10 9 8 7 7 7 7 7 7 7 7 6 5 5 5 5 6 6 6 6 6 7 8 8 8 10 11 12 12 13 14 15 16 16 16
13 20 21 22 22 21 20 20 12 9 8 7 8 9 9 8 7 7 8 9 9 8 8 6 5 5 5 5 5 6 6 7 9 9 11 11 11 12 15 17 20 23 26 27
23 24 13 23 23 23 18 14 11 9 9 9 11 10 10 10 10 9 10 11 12 10 9 9 7 6 6 6 6 7 7 8 9 10 10 10 11 15 18 22 25 29 33 34
36 34 24 22 19 20 26 17 13 16 17 14 11 10 10 10 10 10 11 10 9 9 9 8 8 8 8 8 8 8 8 9 10 11 18 26 32 35 38 39 39 41 42 44
35 34 34 32 29 28 24 24 25 26 26 17 12 12 12 14 15 17 18 21 23 24 23 23 21 20 19 22 25 27 28 29 30 29 29 26 22 20 19 20 22 29 37 50
35 29 31 32 30 26 20 20 19 24 24 16 15 17 23 32 31 29 27 25 23 22 22 20 20 19 19 19 17 17 19 20 20 20 18 14 11 11 12 14 16 19 24 39
37 35 30 29 28 25 30 29 26 26 19 19 26 38 36 33 29 27 31 33 32 29 26 25 24 26 28 28 25 23 20 16 14 12 12 13 15 16 18 21 23 24 26 31
36 37 39 37 30 30 28 33 33 24 27 41 42 40 37 36 37 37 38 38 35 31 31 29 28 24 20 16 14 14 14 14 15 16 19 20 20 22 23 24 27 31 35 38
54 37 36 42 38 40 38 35 29 38 47 48 49 50 45 41 37 38 39 43 39 33 30 34 32 24 19 16 16 16 20 22 23 22 20 18 18 18 22 24 30 37 41 45
55 59 52 32 40 39 38 52 55 55 54 56 55 48 47 49 56 62 62 58 53 40 34 40 45 43 30 19 16 17 20 21 20 17 12 11 10 15 22 30 35 44 51 54
74 71 62 45 39 46 55 57 61 63 65 62 56 52 52 59 63 62 65 68 76 72 65 46 43 46 42 30 19 17 23 20 12 9 10 11 11 13 16 26 38 46 53 59
89 83 64 49 52 50 50 57 65 70 70 66 62 58 54 50 49 45 54 70 63 74 73 72 65 50 43 26 19 21 23 11 6 7 9 10 8 7 8 15 35 52 62 65
67 92 90 79 76 76 71 76 77 82 80 74 71 69 65 63 56 65 90 83 86 79 74 81 76 69 58 26 19 22 15 8 8 7 7 7 8 9 9 12 33 56 68 70
51 53 84 94 91 86 92 95 96 91 89 86 79 79 80 78 79 85 84 91 89 83 85 85 88 81 69 31 21 20 11 9 10 8 7 9 9 13 10 12 33 57 80 91
47 50 51 55 60 66 78 90 91 90 91 91 86 87 93 95 93 92 95 94 89 87 86 93 96 96 79 32 28 31 26 10 10 14 12 10 14 19 17 22 42 63 81 89
24 28 32 41 55 62 66 71 88 98 100 99 89 86 88 92 94 94 92 89 91 95 94 96 97 97 94 40 38 29 12 14 19 21 17 20 25 29 32 40 54 65 79 82
Wind_Speed
17 20 24 28 29 27 28 32 25 29 31 15 20 15 8 12 11 11 13 13 12 11 13 15 17 18 19 19 21 21 21 22 21 20 20 19 15 12 10 11 8 5 7 9
27 23 26 32 36 38 40 41 46 44 39 18 2 6 11 14 13 11 11 11 10 10 10 11 13 15 15 16 17 17 16 17 16 16 16 17 18 18 17 13 10 8 9 11
11 9 19 28 23 30 34 36 33 43 10 15 17 17 16 15 15 12 9 8 8 8 8 9 10 11 11 12 13 13 14 14 14 13 13 13 13 13 14 15 13 10 9 10
16 18 4 5 6 7 9 10 17 24 15 12 14 13 12 14 12 11 9 8 8 8 7 7 9 10 11 10 10 10 11 12 12 13 13 12 12 11 11 11 11 12 11 8
7 9 26 9 13 21 19 18 15 16 11 12 12 12 11 11 9 8 9 10 10 10 9 9 10 11 12 12 12 12 12 12 11 11 11 12 12 12 12 12 13 13 12 12
4 5 5 4 4 3 7 12 3 4 6 8 11 10 10 9 10 11 11 12 12 12 12 12 12 13 13 13 14 13 13 13 13 14 14 14 14 14 15 15 15 16 16 17
21 11 17 9 7 6 4 3 6 11 10 9 10 9 9 12 12 12 14 15 15 15 15 15 15 15 16 16 16 16 16 16 16 17 17 17 18 18 18 17 17 17 18 18
21 11 12 3 4 7 14 17 16 14 14 14 13 12 13 14 15 17 18 19 19 18 19 19 18 19 20 21 19 20 20 20 20 21 21 21 21 21 21 21 22 22 21 20
13 9 12 16 21 19 21 25 23 22 21 20 17 16 18 18 20 20 22 23 24 22 21 22 24 24 22 25 23 23 24 24 24 24 24 25 25 25 25 25 25 25 25 25
29 19 9 12 25 32 32 30 25 21 21 23 22 21 21 22 23 25 27 27 28 28 26 24 29 28 26 27 26 26 27 28 27 27 27 27 27 27 27 26 26 27 28 28
41 31 35 27 19 14 16 19 20 21 23 23 25 24 26 26 27 29 30 30 31 30 30 29 32 32 32 31 30 29 30 29 29 29 28 29 29 29 29 30 29 29 30 30
36 25 32 27 26 28 28 29 30 31 30 30 31 32 33 34 33 32 33 32 33 34 34 32 33 33 34 34 32 33 33 31 31 31 30 31 30 31 32 31 31 31 32 32
34 30 31 28 26 29 34 32 32 35 36 36 34 35 34 34 32 32 31 31 32 33 33 33 33 33 33 33 34 35 33 33 33 32 32 33 33 33 33 34 32 32 32 32
28 33 31 19 22 21 28 31 35 35 33 32 32 29 29 27 26 27 28 30 30 29 28 29 29 29 32 34 34 33 33 34 34 33 33 32 33 34 34 33 33 33 34 33
35 34 32 34 33 31 28 25 26 27 29 31 31 27 27 26 25 25 23 22 22 23 24 26 26 25 28 29 30 32 33 34 34 33 32 33 34 35 35 34 33 33 34 33
29 34 40 45 47 45 39 33 33 29 29 28 27 26 23 21 19 18 18 17 17 18 20 22 25 27 29 30 30 29 31 33 33 35 36 35 35 35 34 33 33 32 32 32
35 28 29 33 32 34 35 34 34 32 27 25 23 21 20 18 16 17 19 21 22 23 24 26 28 28 29 30 31 31 31 32 33 33 33 32 31 30 31 32 32 32 32 32
37 31 33 36 35 30 27 28 29 26 22 21 20 18 17 18 20 20 19 20 23 26 28 29 31 31 32 30 30 31 29 27 27 27 29 30 31 33 34 34 32 32 31 32
25 26 28 35 33 27 26 24 23 21 19 17 17 17 17 18 18 20 22 26 26 26 28 29 29 29 29 28 26 25 27 27 28 31 32 33 33 33 33 33 33 33 33 33
24 24 23 25 24 22 21 19 18 18 17 17 17 15 16 18 20 21 23 25 27 28 30 30 30 29 29 29 30 31 30 31 31 32 32 32 32 32 32 33 34 34 33 34
29 26 24 20 18 15 15 15 16 17 18 18 17 17 18 18 18 17 19 20 26 27 29 31 32 34 34 33 33 33 33 32 32 31 31 30 30 30 30 31 32 33 33 33
27 21 20 12 14 14 15 17 19 19 19 19 20 21 20 20 21 23 26 28 28 31 32 33 33 34 35 34 34 34 34 34 32 30 27 26 27 28 29 30 31 31 31 30
23 19 17 15 15 18 21 22 22 24 24 25 26 27 29 31 32 36 36 38 39 38 36 36 38 36 35 35 34 35 36 34 30 26 24 25 26 28 30 31 30 29 28 27
22 22 17 22 23 25 27 27 27 29 30 31 33 34 37 40 43 42 45 48 43 42 42 40 39 39 36 33 33 35 33 29 27 25 26 27 28 30 31 33 30 28 26 24
30 26 25 23 27 31 33 33 36 37 37 39 44 47 47 47 50 50 49 43 42 46 46 41 41 39 36 33 33 34 30 28 27 26 28 29 29 28 30 32 29 26 24 22
34 34 34 34 35 36 36 39 45 47 49 51 51 51 50 48 48 50 49 50 48 47 43 39 40 40 34 32 31 29 32 31 30 28 29 28 27 26 27 28 26 24 21 20
42 42 41 41 40 37 35 37 41 44 48 52 54 53 54 55 56 57 54 49 42 38 38 39 40 39 29 30 29 30 32 31 28 27 26 24 23 23 24 24 22 20 18 17
Wind_Direction
269 269 270 269 264 252 243 242 238 268 274 284 296 287 262 285 298 307 307 314 325 336 349 347 351 360 7 10 23 31 33 33 30 27 23 20 15 358 342 319 321 281 281 281
289 286 268 267 261 253 251 252 255 264 277 296 200 255 283 285 294 297 300 309 319 331 339 345 349 352 0 6 16 22 30 35 37 35 32 29 26 24 16 2 345 327 297 279
280 294 291 283 271 253 254 255 258 254 265 269 278 284 277 282 288 291 292 292 299 309 330 338 339 343 349 358 5 9 14 20 25 26 23 18 17 19 18 18 17 3 333 302
285 304 248 269 280 251 258 255 251 260 272 273 271 273 279 276 286 286 286 285 286 295 306 319 322 325 332 337 344 353 358 1 5 10 10 7 2 359 357 353 351 349 350 330
270 289 289 302 265 254 263 274 269 266 265 270 271 278 274 281 279 273 275 275 276 285 298 303 307 312 318 326 331 336 342 345 345 347 347 347 346 345 346 345 343 338 336 335
264 283 257 292 294 295 292 305 327 263 258 265 269 275 265 267 259 262 269 271 274 280 286 290 299 304 310 314 314 315 317 319 325 330 331 331 331 332 334 335 335 335 335 334
234 260 276 273 269 276 265 311 323 316 298 283 278 271 255 254 257 258 259 262 268 273 279 282 288 294 296 296 297 301 305 310 314 317 318 321 324 324 325 327 328 330 331 331
211 233 269 173 232 272 300 298 306 305 296 284 276 271 263 260 260 262 264 267 270 274 278 284 286 286 287 289 297 299 302 304 306 307 311 313 313 315 319 322 325 326 326 325
229 266 284 293 298 301 298 299 298 292 289 287 283 277 271 269 268 267 268 269 273 275 280 284 283 282 285 287 292 295 298 298 300 302 304 306 309 312 315 316 317 317 317 317
277 297 291 284 293 294 291 289 287 285 280 278 279 275 272 274 276 277 278 280 279 281 280 281 282 285 286 287 292 293 293 293 296 298 300 302 303 306 307 307 308 308 309 308
283 299 304 301 287 278 288 278 277 280 282 281 278 277 274 273 278 278 278 277 279 281 282 283 282 286 287 288 290 291 289 291 294 296 298 300 302 304 305 305 306 305 304 304
290 312 302 295 283 274 272 271 276 277 277 278 277 274 273 273 273 275 276 279 281 281 282 283 283 284 286 288 290 288 289 291 293 298 300 300 301 303 302 303 304 303 302 302
302 299 289 288 284 280 275 271 271 273 277 280 279 281 279 276 273 271 274 275 276 277 280 281 282 281 281 285 285 284 289 292 294 297 297 299 301 300 299 300 301 301 300 301
298 303 285 286 284 282 284 279 270 271 275 276 278 277 280 282 278 275 275 277 278 274 274 274 278 283 282 286 289 289 289 290 292 293 295 297 295 295 296 298 298 299 299 299
289 286 279 269 273 279 276 277 275 279 282 279 278 281 282 283 283 282 281 281 281 281 282 284 285 284 285 288 290 290 291 291 291 291 291 290 292 294 294 295 296 295 295 297
282 277 273 274 278 277 271 269 270 275 276 276 274 279 279 279 281 285 285 284 287 291 291 293 295 294 292 289 288 288 287 289 289 289 289 291 291 292 295 295 295 296 296 295
302 299 278 277 286 285 277 274 273 272 273 270 269 269 271 275 279 284 290 292 292 292 291 291 290 289 289 290 290 288 287 288 289 291 291 290 293 294 295 295 296 296 296 294
304 298 281 283 290 286 281 274 265 261 261 258 255 254 259 266 277 284 289 293 298 300 300 298 295 292 289 287 287 287 287 288 289 291 290 290 291 293 294 295 295 295 295 295
312 306 298 282 280 282 269 264 256 253 249 247 250 255 263 274 281 289 296 301 303 302 301 300 297 294 292 293 291 290 290 289 289 289 289 291 293 294 295 296 297 297 296 295
329 320 315 300 280 271 259 247 240 239 242 245 247 253 267 278 286 294 299 304 304 304 301 299 296 294 291 291 292 293 294 294 294 292 292 294 296 297 297 297 297 297 296 295
325 328 346 316 274 250 233 233 238 241 243 247 254 266 277 289 296 303 308 310 311 309 303 301 301 299 295 291 292 295 295 294 292 291 292 296 298 300 302 301 299 297 296 296
339 335 325 314 280 257 245 245 251 255 255 257 264 273 280 287 293 297 301 306 311 311 309 304 302 303 298 293 292 293 294 294 291 292 294 299 304 308 310 306 304 302 300 298
334 329 305 273 259 258 262 256 255 260 263 269 276 281 286 289 292 291 292 296 297 306 308 302 299 297 298 292 291 293 294 291 287 288 294 298 303 308 311 311 309 306 303 301
313 315 288 271 264 260 261 262 261 263 268 273 277 281 285 288 288 292 298 301 296 297 307 304 296 292 293 290 289 292 290 286 284 287 291 296 299 302 308 311 312 310 307 303
298 293 288 287 271 265 266 267 269 269 273 277 277 280 282 287 287 290 293 295 295 294 301 299 295 289 287 286 288 291 292 291 290 293 292 293 296 302 306 311 312 311 305 302
302 297 293 288 286 284 282 277 270 269 271 275 277 281 285 287 286 289 294 297 296 295 295 292 289 286 282 284 287 294 295 293 288 289 288 290 295 302 307 311 311 308 305 306
294 297 298 295 294 293 290 282 278 282 281 283 284 285 287 291 294 296 297 296 295 292 293 290 286 283 277 286 295 293 286 284 285 285 286 291 297 302 306 309 309 309 309 306